Madison, SD

4:41 AM CST on February 25, 2017 (GMT -0600)
Madison Municipal

Weather History for KMDS - July, 2013

Change the Weather History Date:

Monday, July 1, 2013

  Actual Average Record
Temperature  
Mean Temperature 66 °F -  
Max Temperature 80 °F 82 °F 89 °F (2011)
Min Temperature 53 °F 59 °F 44 °F (2016)
Cooling Degree Days 2    
Growing Degree Days 16 (Base 50)    
Moisture  
Dew Point 53 °F    
Average Humidity 65    
Maximum Humidity 100    
Minimum Humidity 34    
Precipitation  
Precipitation 0.00 in - - ()
Sea Level Pressure  
Sea Level Pressure 30.22 in    
Wind  
Wind Speed 5 mph (NNE)    
Max Wind Speed 10 mph    
Max Gust Speed -    
Visibility 10 miles    
Events      
Averages and records for this station are not official NWS values.
T = Trace of Precipitation, MM = Missing Value Source: NWS Daily Summary

Daily Weather History Graph

Daily Weather History Graph

Search for Another Location

Airport or City:

Trip Planner

Search our weather history database for the weather conditions in past years. The results will help you decide how hot, cold, wet, or windy it might be!

Date:

Astronomy

Jul. 01, 2013 Rise Set
Actual Time 5:49 AM CDT 9:14 PM CDT
Civil Twilight 5:13 AM CDT 9:51 PM CDT
Nautical Twilight 4:26 AM CDT 10:38 PM CDT
Astronomical Twilight 3:26 AM CDT 11:37 PM CDT
Moon 1:28 AM CDT (7/1) 3:24 PM CDT (7/1)
Length of Visible Light 16h 37m
Length of Day
15h 25m
Waning Crescent, 35% of the Moon is Illuminated
Jul 1
Waning Crescent
Jul 8
New
Jul 15
First Quarter
Jul 22
Full
Jul 29
Last Quarter

Hourly Weather History & Observations

Time (CDT) Temp. Dew Point Humidity Pressure Visibility Wind Dir Wind Speed Gust Speed Precip Events Conditions
12:10 AM 57.2 °F 55.4 °F 94% 30.20 in 10.0 mi NNW 3.5 mph - N/A   Clear
12:30 AM 57.2 °F 53.6 °F 88% 30.20 in 10.0 mi NNW 5.8 mph - N/A   Clear
12:50 AM 55.4 °F 53.6 °F 94% 30.20 in 10.0 mi NNW 5.8 mph - N/A   Clear
1:10 AM 55.4 °F 53.6 °F 94% 30.21 in 10.0 mi NNW 5.8 mph - N/A   Clear
1:30 AM 55.4 °F 55.4 °F 100% 30.21 in 10.0 mi North 4.6 mph - N/A   Clear
1:50 AM 55.4 °F 55.4 °F 100% 30.21 in 10.0 mi NNW 4.6 mph - N/A   Clear
2:10 AM 57.2 °F 55.4 °F 94% 30.21 in 10.0 mi NNW 4.6 mph - N/A   Clear
2:30 AM 55.4 °F 53.6 °F 94% 30.22 in 10.0 mi NW 5.8 mph - N/A   Clear
2:50 AM 55.4 °F 55.4 °F 100% 30.22 in 10.0 mi NNW 4.6 mph - N/A   Clear
3:10 AM 53.6 °F 53.6 °F 100% 30.22 in 10.0 mi NNW 6.9 mph - N/A   Clear
3:30 AM 53.6 °F 53.6 °F 100% 30.22 in 10.0 mi NNW 5.8 mph - N/A   Clear
3:50 AM 53.6 °F 53.6 °F 100% 30.22 in 10.0 mi NNW 4.6 mph - N/A   Clear
4:10 AM 53.6 °F 53.6 °F 100% 30.22 in 10.0 mi NNW 4.6 mph - N/A   Clear
4:30 AM 53.6 °F 53.6 °F 100% 30.22 in 10.0 mi NNW 5.8 mph - N/A   Clear
4:50 AM 53.6 °F 53.6 °F 100% 30.23 in 10.0 mi NNW 5.8 mph - N/A   Clear
5:10 AM 53.6 °F 53.6 °F 100% 30.23 in 10.0 mi NNW 5.8 mph - N/A   Clear
5:30 AM 53.6 °F 53.6 °F 100% 30.23 in 10.0 mi NNW 4.6 mph - N/A   Clear
5:50 AM 53.6 °F 53.6 °F 100% 30.24 in 10.0 mi North 4.6 mph - N/A   Clear
6:10 AM 55.4 °F 55.4 °F 100% 30.24 in 10.0 mi NNW 4.6 mph - N/A   Clear
6:30 AM 55.4 °F 55.4 °F 100% 30.24 in 10.0 mi NNW 3.5 mph - N/A   Clear
6:50 AM 57.2 °F 57.2 °F 100% 30.25 in 10.0 mi North 4.6 mph - N/A   Clear
7:10 AM 62.6 °F 59.0 °F 88% 30.25 in 10.0 mi North 3.5 mph - N/A   Clear
7:30 AM 64.4 °F 59.0 °F 83% 30.25 in 10.0 mi North 9.2 mph - N/A   Clear
7:50 AM 66.2 °F 57.2 °F 73% 30.25 in 10.0 mi North 5.8 mph - N/A   Clear
8:10 AM 68.0 °F 57.2 °F 68% 30.25 in 10.0 mi NNE 4.6 mph - N/A   Clear
8:30 AM 68.0 °F 55.4 °F 64% 30.26 in 10.0 mi North 6.9 mph - N/A   Clear
8:50 AM 71.6 °F 57.2 °F 60% 30.26 in 10.0 mi NNE 6.9 mph - N/A   Clear
9:10 AM 73.4 °F 57.2 °F 57% 30.26 in 10.0 mi NNE 4.6 mph - N/A   Clear
9:30 AM 73.4 °F 55.4 °F 53% 30.26 in 10.0 mi NNE 9.2 mph - N/A   Clear
9:50 AM 75.2 °F 55.4 °F 50% 30.26 in 10.0 mi NE 9.2 mph - N/A   Clear
10:10 AM 75.2 °F 53.6 °F 47% 30.25 in 10.0 mi North 8.1 mph - N/A   Clear
10:30 AM 75.2 °F 53.6 °F 47% 30.26 in 10.0 mi NE 6.9 mph - N/A   Clear
10:50 AM 77.0 °F 51.8 °F 41% 30.26 in 10.0 mi NE 6.9 mph - N/A   Clear
11:10 AM 77.0 °F 48.2 °F 36% 30.26 in 10.0 mi ENE 6.9 mph - N/A   Clear
11:30 AM 77.0 °F 48.2 °F 36% 30.26 in 10.0 mi ENE 8.1 mph - N/A   Clear
11:50 AM 77.0 °F 50.0 °F 39% 30.25 in 10.0 mi ENE 4.6 mph - N/A   Clear
12:10 PM 77.0 °F 48.2 °F 36% 30.25 in 10.0 mi Calm Calm - N/A   Scattered Clouds
12:30 PM 78.8 °F 50.0 °F 36% 30.25 in 10.0 mi NE 8.1 mph - N/A   Partly Cloudy
12:50 PM 77.0 °F 50.0 °F 39% 30.25 in 10.0 mi NNE 9.2 mph - N/A   Scattered Clouds
1:10 PM 77.0 °F 50.0 °F 39% 30.24 in 10.0 mi East 6.9 mph - N/A   Scattered Clouds
1:30 PM 80.6 °F 51.8 °F 37% 30.24 in 10.0 mi NE 9.2 mph - N/A   Scattered Clouds
1:50 PM 77.0 °F 50.0 °F 39% 30.24 in 10.0 mi NNE 4.6 mph - N/A   Mostly Cloudy
2:10 PM 78.8 °F 50.0 °F 36% 30.23 in 10.0 mi North 4.6 mph - N/A   Scattered Clouds
2:30 PM 80.6 °F 50.0 °F 34% 30.23 in 10.0 mi ENE 9.2 mph - N/A   Partly Cloudy
2:50 PM 80.6 °F 50.0 °F 34% 30.22 in 10.0 mi Calm Calm - N/A   Scattered Clouds
3:10 PM 77.0 °F 50.0 °F 39% 30.22 in 10.0 mi NE 4.6 mph - N/A   Mostly Cloudy
3:30 PM 78.8 °F 50.0 °F 36% 30.21 in 10.0 mi NE 8.1 mph - N/A   Partly Cloudy
3:50 PM 78.8 °F 50.0 °F 36% 30.21 in 10.0 mi East 9.2 mph - N/A   Partly Cloudy
4:10 PM 80.6 °F 50.0 °F 34% 30.21 in 10.0 mi ENE 4.6 mph - N/A   Clear
4:30 PM 78.8 °F 50.0 °F 36% 30.20 in 10.0 mi North 4.6 mph - N/A   Scattered Clouds
4:50 PM 78.8 °F 50.0 °F 36% 30.20 in 10.0 mi East 6.9 mph - N/A   Scattered Clouds
5:10 PM 77.0 °F 50.0 °F 39% 30.20 in 10.0 mi ENE 6.9 mph - N/A   Partly Cloudy
5:30 PM 77.0 °F 50.0 °F 39% 30.20 in 10.0 mi NE 5.8 mph - N/A   Clear
5:50 PM 78.8 °F 50.0 °F 36% 30.20 in 10.0 mi NE 4.6 mph - N/A   Partly Cloudy
6:10 PM 77.0 °F 50.0 °F 39% 30.20 in 10.0 mi ENE 4.6 mph - N/A   Partly Cloudy
6:30 PM 78.8 °F 50.0 °F 36% 30.19 in 10.0 mi NE 10.4 mph - N/A   Clear
6:50 PM 78.8 °F 51.8 °F 39% 30.19 in 10.0 mi ENE 8.1 mph - N/A   Clear
7:10 PM 77.0 °F 50.0 °F 39% 30.19 in 10.0 mi NE 5.8 mph - N/A   Clear
7:30 PM 77.0 °F 51.8 °F 41% 30.19 in 10.0 mi ENE 5.8 mph - N/A   Clear
7:50 PM 75.2 °F 53.6 °F 47% 30.19 in 10.0 mi ENE 4.6 mph - N/A   Clear
8:10 PM 73.4 °F 57.2 °F 57% 30.19 in 10.0 mi ENE 4.6 mph - N/A   Clear
8:30 PM 73.4 °F 55.4 °F 53% 30.19 in 10.0 mi ENE 4.6 mph - N/A   Clear
8:50 PM 71.6 °F 55.4 °F 57% 30.19 in 10.0 mi ENE 5.8 mph - N/A   Clear
9:10 PM 69.8 °F 55.4 °F 60% 30.19 in 10.0 mi ENE 4.6 mph - N/A   Clear
9:30 PM 66.2 °F 55.4 °F 68% 30.19 in 10.0 mi NE 3.5 mph - N/A   Clear
9:50 PM 66.2 °F 55.4 °F 68% 30.19 in 10.0 mi NNE 3.5 mph - N/A   Clear
10:10 PM 66.2 °F 57.2 °F 73% 30.20 in 10.0 mi NNE 3.5 mph - N/A   Clear
10:30 PM 64.4 °F 55.4 °F 73% 30.20 in 10.0 mi North 4.6 mph - N/A   Clear
10:50 PM 62.6 °F 59.0 °F 88% 30.19 in 10.0 mi NNW 3.5 mph - N/A   Clear
11:10 PM 64.4 °F 57.2 °F 77% 30.19 in 10.0 mi North 3.5 mph - N/A   Scattered Clouds
11:30 PM 62.6 °F 59.0 °F 88% 30.19 in 10.0 mi North 3.5 mph - N/A   Scattered Clouds
11:50 PM 62.6 °F 59.0 °F 88% 30.19 in 10.0 mi Calm Calm - N/A   Partly Cloudy